Home   Weather   Turku   Past weeks

Flag for Finland Past Weather in Turku, Finland — Yesterday and Last 2 Weeks

Now
43 °F

Sunny.


Feels Like: 36 °F
Forecast: 32 / 39 °F
Wind: 12 mph from Northeast

Location: Turku Airport

Current Time: Apr 29, 2017 at 10:43:29 am

Latest Report: Apr 29, 2017 at 9:50 am


Visibility: 10 mi

Pressure: 30.12 "Hg

Humidity: 49%

Dew Point: 25 °F

Location of TurkuLocation

Past Weather in Turku — Graph

°F

Turku Temperature Yesterday

Maximum temperature yesterday: 50 °F (at 3:20 pm)
Minimum temperature yesterday: 23 °F (at 3:50 am)
Average temperature yesterday: 39 °F

High & Low Weather Summary for the Past Weeks

 TemperatureHumidityPressure
High50 °F (Apr 21, 2:50 pm)100% (Apr 20, 6:50 pm)30.51 "Hg (Apr 20, 6:50 pm)
Low18 °F (Apr 17, 5:50 am)26% (Apr 18, 4:20 pm)29.18 "Hg (Apr 22, 5:50 am)
Average35 °F68%29.82 "Hg
* Reported Apr 14 9:20 am — Apr 29 9:20 am, Turku, Weather by CustomWeather, © 2017

Note: Actual official high and low records may vary slightly from our data, if they occured in-between our weather recording intervals... More about our weather records

Advertising

Turku Weather History for the Previous 24 Hours

Scroll right to see more
 ConditionsComfort  
Time TempWeatherWind HumidityBarometerVisibility
9:20 am
Sat, Apr 29
43 °FSunny.16 mph53%30.15 "Hg10 mi
8:50 am41 °FSunny.12 mph57%30.15 "Hg10 mi
8:20 am37 °FSunny.10 mph65%30.15 "Hg10 mi
7:50 am36 °FPassing clouds.9 mph70%30.15 "HgN/A
7:20 am36 °FSunny.8 mph70%30.18 "Hg10 mi
6:50 am34 °FSunny.8 mph75%30.18 "Hg10 mi
6:20 am34 °FSunny.7 mph75%30.18 "Hg10 mi
5:50 am32 °FSunny.7 mph80%30.18 "Hg10 mi
5:20 am32 °FClear.7 mph80%30.18 "Hg10 mi
4:50 am32 °FClear.7 mph80%30.18 "Hg10 mi
4:20 am32 °FClear.7 mph80%30.18 "Hg10 mi
3:50 am32 °FClear.7 mph75%30.18 "Hg10 mi
3:20 am32 °FClear.8 mph75%30.18 "Hg10 mi
2:50 am32 °FClear.8 mph75%30.18 "Hg10 mi
2:20 am34 °FClear.8 mph70%30.18 "Hg10 mi
1:50 am34 °FClear.8 mph70%30.18 "Hg10 mi
1:20 am36 °FClear.8 mph65%30.18 "Hg10 mi
12:50 am36 °FClear.8 mph65%30.18 "Hg10 mi
12:20 am37 °FClear.7 mph60%30.21 "Hg10 mi
11:50 pm
Fri, Apr 28
37 °FClear.8 mph60%30.21 "Hg10 mi
11:20 pm39 °FClear.9 mph56%30.18 "Hg10 mi
10:50 pm41 °FClear.8 mph53%30.18 "Hg10 mi
10:20 pm41 °FClear.8 mph53%30.18 "Hg10 mi
9:50 pm43 °FClear.9 mph49%30.18 "Hg10 mi
9:20 pm45 °FPartly sunny.9 mph46%30.18 "HgN/A
8:50 pm46 °FPartly sunny.9 mph40%30.18 "HgN/A
8:20 pm48 °FScattered clouds.9 mph37%30.15 "HgN/A
7:50 pm48 °FPassing clouds.7 mph37%30.15 "HgN/A
7:20 pm48 °FPartly sunny.7 mph34%30.15 "HgN/A
6:50 pm48 °FScattered clouds.8 mph34%30.15 "HgN/A
6:20 pm50 °FPartly sunny.3 mph32%30.15 "HgN/A
5:50 pm48 °FPartly sunny.5 mph34%30.15 "HgN/A
5:20 pm50 °FPartly sunny.9 mph32%30.15 "HgN/A
4:50 pm50 °FScattered clouds.5 mph32%30.15 "HgN/A
4:20 pm48 °FBroken clouds.7 mph32%30.15 "HgN/A
3:50 pm50 °FPartly sunny.6 mph32%30.15 "HgN/A
3:20 pm50 °FPassing clouds.3 mph32%30.15 "HgN/A
2:50 pm48 °FPartly sunny.5 mph34%30.15 "HgN/A
2:20 pm48 °FPartly sunny.8 mph37%30.15 "HgN/A
1:50 pm48 °FPassing clouds.5 mph34%30.15 "HgN/A
1:20 pm48 °FScattered clouds.5 mph37%30.15 "HgN/A
12:50 pm46 °FPassing clouds.3 mph40%30.15 "HgN/A
12:20 pm46 °FPassing clouds.3 mph40%30.15 "HgN/A
11:50 am46 °FPassing clouds.6 mph43%30.12 "HgN/A
11:20 am45 °FPassing clouds.5 mph46%30.12 "HgN/A
10:50 am45 °FPassing clouds.5 mph49%30.12 "HgN/A
10:20 am43 °FPassing clouds.6 mph53%30.12 "HgN/A
Weather by CustomWeather, © 2017

See weather overviewHow to use our weather pages